| time (UTC) | temp F | wind direction | speed MPH | gust MPH | rain 1hr in | rain 24hr in | rain mn in | humidity % | barometer mb |
| 20260508155503 | 71 | 238 | 4.0 | 11.0 | 0.00 | 0.00 | 0.00 | 51 | 1009.6 |
| 20260508155007 | 71 | 249 | 2.0 | 9.0 | 0.00 | 0.00 | 0.00 | 54 | 1009.7 |
| 20260508154520 | 71 | 270 | 3.0 | 9.0 | 0.00 | 0.00 | 0.00 | 52 | 1009.8 |
| 20260508154009 | 71 | 239 | 1.0 | 9.0 | 0.00 | 0.00 | 0.00 | 53 | 1009.9 |
| 20260508153510 | 71 | 232 | 3.0 | 9.0 | 0.00 | 0.00 | 0.00 | 54 | 1009.9 |
| 20260508153022 | 70 | 275 | 2.0 | 9.0 | 0.00 | 0.00 | 0.00 | 56 | 1010.0 |
| 20260508152510 | 69 | 243 | 4.0 | 9.0 | 0.00 | 0.00 | 0.00 | 55 | 1010.1 |
| 20260508152003 | 70 | 268 | 3.0 | 14.0 | 0.00 | 0.00 | 0.00 | 54 | 1010.1 |
| 20260508151511 | 70 | 254 | 5.0 | 14.0 | 0.00 | 0.00 | 0.00 | 54 | 1010.1 |
| 20260508151007 | 69 | 232 | 3.0 | 11.0 | 0.00 | 0.00 | 0.00 | 57 | 1010.2 |
| 20260508150504 | 68 | 274 | 2.0 | 10.0 | 0.00 | 0.00 | 0.00 | 58 | 1010.3 |
| 20260508150018 | 68 | 214 | 2.0 | 8.0 | 0.00 | 0.00 | 0.00 | 58 | 1010.5 |
| 20260508145504 | 68 | 232 | 3.0 | 9.0 | 0.00 | 0.00 | 0.00 | 59 | 1010.5 |
| 20260508145003 | 67 | 191 | 2.0 | 9.0 | 0.00 | 0.00 | 0.00 | 59 | 1010.6 |
| 20260508144536 | 67 | 204 | 1.0 | 9.0 | 0.00 | 0.00 | 0.00 | 60 | 1010.7 |
| 20260508144008 | 66 | 202 | 3.0 | 10.0 | 0.00 | 0.00 | 0.00 | 61 | 1010.8 |
| 20260508143507 | 66 | 242 | 1.0 | 10.0 | 0.00 | 0.00 | 0.00 | 61 | 1010.7 |
| 20260508143003 | 66 | 218 | 3.0 | 8.0 | 0.00 | 0.00 | 0.00 | 61 | 1010.7 |
| 20260508142501 | 66 | 239 | 3.0 | 7.0 | 0.00 | 0.00 | 0.00 | 61 | 1010.8 |
| 20260508142003 | 65 | 136 | 1.0 | 8.0 | 0.00 | 0.00 | 0.00 | 63 | 1010.9 |
| 20260508141507 | 65 | 263 | 3.0 | 8.0 | 0.00 | 0.00 | 0.00 | 61 | 1011.0 |
| 20260508141003 | 65 | 251 | 2.0 | 8.0 | 0.00 | 0.00 | 0.00 | 61 | 1011.0 |
| 20260508140502 | 65 | 246 | 3.0 | 8.0 | 0.00 | 0.00 | 0.00 | 61 | 1010.9 |
| 20260508140009 | 65 | 242 | 3.0 | 8.0 | 0.00 | 0.00 | 0.00 | 62 | 1010.9 |
| 20260508135505 | 64 | 221 | 2.0 | 7.0 | 0.00 | 0.00 | 0.00 | 64 | 1010.9 |
| 20260508135003 | 63 | 153 | 2.0 | 10.0 | 0.00 | 0.00 | 0.00 | 64 | 1011.0 |
| 20260508134518 | 63 | 250 | 2.0 | 10.0 | 0.00 | 0.00 | 0.00 | 63 | 1011.2 |
| 20260508134005 | 63 | 271 | 2.0 | 9.0 | 0.00 | 0.00 | 0.00 | 65 | 1011.0 |
| 20260508133508 | 63 | 271 | 4.0 | 9.0 | 0.00 | 0.00 | 0.00 | 65 | 1010.9 |
| 20260508133023 | 62 | 271 | 1.0 | 9.0 | 0.00 | 0.00 | 0.00 | 67 | 1010.8 |
| 20260508132505 | 61 | 216 | 2.0 | 6.0 | 0.00 | 0.00 | 0.00 | 68 | 1010.8 |
| 20260508132007 | 60 | 252 | 2.0 | 9.0 | 0.00 | 0.00 | 0.00 | 68 | 1010.8 |
| 20260508131503 | 60 | 233 | 2.0 | 9.0 | 0.00 | 0.00 | 0.00 | 70 | 1010.8 |
| 20260508131002 | 59 | 256 | 2.0 | 9.0 | 0.00 | 0.00 | 0.00 | 70 | 1010.8 |
| 20260508130502 | 58 | 186 | 2.0 | 9.0 | 0.00 | 0.00 | 0.00 | 70 | 1010.7 |
| 20260508130008 | 58 | 229 | 3.0 | 9.0 | 0.00 | 0.00 | 0.00 | 71 | 1010.8 |
| 20260508125503 | 57 | 257 | 0.0 | 7.0 | 0.00 | 0.00 | 0.00 | 72 | 1010.8 |
| 20260508125003 | 57 | 261 | 1.0 | 7.0 | 0.00 | 0.00 | 0.00 | 72 | 1010.7 |
| 20260508124510 | 56 | 246 | 1.0 | 4.0 | 0.00 | 0.00 | 0.00 | 73 | 1010.7 |
| 20260508124006 | 56 | 241 | 0.0 | 4.0 | 0.00 | 0.00 | 0.00 | 73 | 1010.7 |
| 20260508123507 | 56 | 257 | 0.0 | 4.0 | 0.00 | 0.00 | 0.00 | 73 | 1010.7 |
| 20260508123016 | 55 | 250 | 1.0 | 7.0 | 0.00 | 0.00 | 0.00 | 73 | 1010.6 |
| 20260508122505 | 55 | 284 | 1.0 | 7.0 | 0.00 | 0.00 | 0.00 | 73 | 1010.7 |
| 20260508122007 | 55 | 270 | 0.0 | 6.0 | 0.00 | 0.00 | 0.00 | 73 | 1010.6 |
| 20260508121524 | 54 | 275 | 1.0 | 4.0 | 0.00 | 0.00 | 0.00 | 73 | 1010.6 |
| 20260508121009 | 54 | 270 | 0.0 | 2.0 | 0.00 | 0.00 | 0.00 | 73 | 1010.5 |
| 20260508120509 | 54 | 270 | 0.0 | 2.0 | 0.00 | 0.00 | 0.00 | 74 | 1010.6 |
| 20260508120007 | 54 | 270 | 0.0 | 3.0 | 0.00 | 0.00 | 0.00 | 72 | 1010.8 |
| 20260508115501 | 54 | 257 | 0.0 | 4.0 | 0.00 | 0.00 | 0.00 | 73 | 1010.6 |
| 20260508115001 | 54 | 266 | 0.0 | 7.0 | 0.00 | 0.00 | 0.00 | 72 | 1010.7 |
| 20260508114511 | 54 | 252 | 1.0 | 8.0 | 0.00 | 0.00 | 0.00 | 71 | 1010.6 |
| 20260508114009 | 54 | 260 | 2.0 | 8.0 | 0.00 | 0.00 | 0.00 | 71 | 1010.7 |
| 20260508113507 | 54 | 267 | 0.0 | 4.0 | 0.00 | 0.00 | 0.00 | 71 | 1010.6 |
| 20260508113013 | 54 | 263 | 0.0 | 3.0 | 0.00 | 0.00 | 0.00 | 71 | 1010.7 |
| 20260508112508 | 54 | 250 | 0.0 | 3.0 | 0.00 | 0.00 | 0.00 | 71 | 1010.6 |
| 20260508112008 | 54 | 258 | 0.0 | 3.0 | 0.00 | 0.00 | 0.00 | 70 | 1010.6 |
| 20260508111517 | 54 | 261 | 0.0 | 3.0 | 0.00 | 0.00 | 0.00 | 70 | 1010.7 |
| 20260508111009 | 54 | 261 | 0.0 | 4.0 | 0.00 | 0.00 | 0.00 | 70 | 1010.6 |
| 20260508110506 | 54 | 261 | 0.0 | 4.0 | 0.00 | 0.00 | 0.00 | 69 | 1010.7 |
| 20260508110043 | 54 | 261 | 0.0 | 3.0 | 0.00 | 0.00 | 0.00 | 69 | 1010.7 |
| 20260508105508 | 54 | 257 | 1.0 | 3.0 | 0.00 | 0.00 | 0.00 | 69 | 1010.7 |
| 20260508105010 | 54 | 264 | 0.0 | 4.0 | 0.00 | 0.00 | 0.00 | 68 | 1010.7 |
| 20260508104524 | 54 | 264 | 0.0 | 4.0 | 0.00 | 0.00 | 0.00 | 68 | 1010.7 |
| 20260508104003 | 54 | 259 | 0.0 | 3.0 | 0.00 | 0.00 | 0.00 | 68 | 1010.6 |
| 20260508103504 | 54 | 259 | 0.0 | 3.0 | 0.00 | 0.00 | 0.00 | 68 | 1010.5 |
| 20260508103010 | 55 | 259 | 0.0 | 4.0 | 0.00 | 0.00 | 0.00 | 67 | 1010.6 |
| 20260508102503 | 55 | 250 | 0.0 | 4.0 | 0.00 | 0.00 | 0.00 | 67 | 1010.6 |
| 20260508102007 | 55 | 250 | 0.0 | 3.0 | 0.00 | 0.00 | 0.00 | 66 | 1010.6 |
| 20260508101515 | 55 | 245 | 0.0 | 4.0 | 0.00 | 0.00 | 0.00 | 66 | 1010.6 |
| 20260508101007 | 55 | 237 | 0.0 | 4.0 | 0.00 | 0.00 | 0.00 | 66 | 1010.6 |
| 20260508100508 | 55 | 275 | 0.0 | 3.0 | 0.00 | 0.00 | 0.00 | 66 | 1010.5 |
| 20260508100021 | 55 | 265 | 0.0 | 3.0 | 0.00 | 0.00 | 0.00 | 66 | 1010.5 |
| 20260508095505 | 55 | 254 | 0.0 | 3.0 | 0.00 | 0.00 | 0.00 | 65 | 1010.5 |
| 20260508095008 | 55 | 254 | 0.0 | 3.0 | 0.00 | 0.00 | 0.00 | 65 | 1010.5 |
| 20260508094525 | 55 | 254 | 0.0 | 4.0 | 0.00 | 0.00 | 0.00 | 64 | 1010.6 |
| 20260508094009 | 55 | 252 | 0.0 | 4.0 | 0.00 | 0.00 | 0.00 | 63 | 1010.5 |
| 20260508093508 | 55 | 222 | 0.0 | 3.0 | 0.00 | 0.00 | 0.00 | 63 | 1010.4 |
| 20260508093029 | 56 | 232 | 0.0 | 4.0 | 0.00 | 0.00 | 0.00 | 62 | 1010.5 |
| 20260508092504 | 56 | 249 | 1.0 | 7.0 | 0.00 | 0.00 | 0.00 | 61 | 1010.5 |
| 20260508092003 | 56 | 183 | 0.0 | 8.0 | 0.00 | 0.00 | 0.00 | 61 | 1010.6 |
| 20260508091514 | 56 | 227 | 1.0 | 8.0 | 0.00 | 0.00 | 0.00 | 61 | 1010.4 |
| 20260508091006 | 57 | 229 | 1.0 | 6.0 | 0.00 | 0.00 | 0.00 | 60 | 1010.4 |
| 20260508090506 | 57 | 261 | 1.0 | 4.0 | 0.00 | 0.00 | 0.00 | 60 | 1010.3 |
| 20260508090024 | 57 | 271 | 1.0 | 7.0 | 0.00 | 0.00 | 0.00 | 59 | 1010.4 |
| 20260508085506 | 57 | 263 | 1.0 | 7.0 | 0.00 | 0.00 | 0.00 | 59 | 1010.4 |
| 20260508085007 | 57 | 263 | 0.0 | 7.0 | 0.00 | 0.00 | 0.00 | 58 | 1010.4 |
| 20260508084520 | 58 | 263 | 1.0 | 7.0 | 0.00 | 0.00 | 0.00 | 58 | 1010.5 |
| 20260508084008 | 58 | 246 | 1.0 | 7.0 | 0.00 | 0.00 | 0.00 | 57 | 1010.4 |
| 20260508083506 | 58 | 245 | 2.0 | 9.0 | 0.00 | 0.00 | 0.00 | 57 | 1010.4 |
| 20260508083025 | 58 | 149 | 2.0 | 9.0 | 0.00 | 0.00 | 0.00 | 56 | 1010.6 |
| 20260508082509 | 58 | 220 | 2.0 | 8.0 | 0.00 | 0.00 | 0.00 | 56 | 1010.6 |
| 20260508082012 | 58 | 243 | 1.0 | 8.0 | 0.00 | 0.00 | 0.00 | 56 | 1010.5 |
| 20260508081528 | 58 | 240 | 1.0 | 7.0 | 0.00 | 0.00 | 0.00 | 56 | 1010.5 |
| 20260508081003 | 58 | 264 | 2.0 | 7.0 | 0.00 | 0.00 | 0.00 | 55 | 1010.6 |
| 20260508080507 | 58 | 257 | 3.0 | 8.0 | 0.00 | 0.00 | 0.00 | 55 | 1010.5 |
| 20260508080014 | 58 | 253 | 0.0 | 8.0 | 0.00 | 0.00 | 0.00 | 55 | 1010.6 |
| 20260508075507 | 58 | 196 | 2.0 | 4.0 | 0.00 | 0.00 | 0.00 | 55 | 1010.7 |
| 20260508075006 | 58 | 232 | 1.0 | 7.0 | 0.00 | 0.00 | 0.00 | 55 | 1010.7 |
| 20260508074521 | 58 | 230 | 0.0 | 7.0 | 0.00 | 0.00 | 0.00 | 55 | 1010.7 |
| 20260508074009 | 59 | 251 | 1.0 | 6.0 | 0.00 | 0.00 | 0.00 | 54 | 1010.8 |
| 20260508073509 | 59 | 229 | 0.0 | 6.0 | 0.00 | 0.00 | 0.00 | 54 | 1010.9 |
| 20260508073022 | 59 | 234 | 0.0 | 5.0 | 0.00 | 0.00 | 0.00 | 54 | 1011.0 |
| 20260508072510 | 59 | 256 | 1.0 | 5.0 | 0.00 | 0.00 | 0.00 | 53 | 1011.1 |
| 20260508072012 | 60 | 217 | 1.0 | 7.0 | 0.00 | 0.00 | 0.00 | 52 | 1011.1 |
| 20260508071525 | 60 | 247 | 2.0 | 10.0 | 0.00 | 0.00 | 0.00 | 52 | 1011.0 |
| 20260508071011 | 60 | 251 | 2.0 | 10.0 | 0.00 | 0.00 | 0.00 | 52 | 1010.9 |
| 20260508070512 | 60 | 180 | 2.0 | 7.0 | 0.00 | 0.00 | 0.00 | 51 | 1010.9 |
| 20260508070029 | 60 | 190 | 2.0 | 6.0 | 0.00 | 0.00 | 0.00 | 51 | 1010.9 |
| 20260508065507 | 60 | 262 | 1.0 | 6.0 | 0.00 | 0.00 | 0.00 | 50 | 1010.9 |
| 20260508065004 | 61 | 262 | 0.0 | 7.0 | 0.00 | 0.00 | 0.00 | 50 | 1010.9 |
| 20260508064516 | 61 | 265 | 1.0 | 7.0 | 0.00 | 0.00 | 0.00 | 49 | 1011.0 |
| 20260508064004 | 61 | 212 | 2.0 | 12.0 | 0.00 | 0.00 | 0.00 | 49 | 1011.0 |
| 20260508063506 | 61 | 155 | 2.0 | 12.0 | 0.00 | 0.00 | 0.00 | 49 | 1010.9 |
| 20260508063021 | 61 | 252 | 2.0 | 8.0 | 0.00 | 0.00 | 0.00 | 50 | 1010.9 |
| 20260508062511 | 61 | 259 | 2.0 | 8.0 | 0.00 | 0.00 | 0.00 | 50 | 1011.0 |
| 20260508062003 | 61 | 277 | 3.0 | 8.0 | 0.00 | 0.00 | 0.00 | 50 | 1011.0 |
| 20260508061506 | 61 | 292 | 1.0 | 7.0 | 0.00 | 0.00 | 0.00 | 50 | 1011.1 |
| 20260508061007 | 61 | 254 | 1.0 | 8.0 | 0.00 | 0.00 | 0.00 | 50 | 1011.0 |
| 20260508060503 | 61 | 211 | 2.0 | 8.0 | 0.00 | 0.00 | 0.00 | 50 | 1011.1 |
| 20260508060010 | 60 | 257 | 1.0 | 6.0 | 0.00 | 0.00 | 0.00 | 50 | 1011.2 |
| 20260508055504 | 60 | 265 | 0.0 | 3.0 | 0.00 | 0.00 | 0.00 | 50 | 1011.2 |
| 20260508055004 | 60 | 258 | 1.0 | 7.0 | 0.00 | 0.00 | 0.00 | 50 | 1011.2 |
| 20260508054514 | 60 | 223 | 0.0 | 7.0 | 0.00 | 0.00 | 0.00 | 50 | 1011.2 |
| 20260508054007 | 60 | 231 | 0.0 | 6.0 | 0.00 | 0.00 | 0.00 | 50 | 1011.2 |
| 20260508053504 | 60 | 255 | 0.0 | 6.0 | 0.00 | 0.00 | 0.00 | 50 | 1011.2 |
| 20260508053032 | 60 | 258 | 1.0 | 6.0 | 0.00 | 0.00 | 0.00 | 50 | 1011.2 |
| 20260508052510 | 60 | 261 | 0.0 | 4.0 | 0.00 | 0.00 | 0.00 | 50 | 1011.2 |
| 20260508052003 | 60 | 266 | 0.0 | 4.0 | 0.00 | 0.00 | 0.00 | 49 | 1011.3 |
| 20260508051504 | 60 | 244 | 0.0 | 4.0 | 0.00 | 0.00 | 0.00 | 50 | 1011.4 |
| 20260508051005 | 60 | 257 | 1.0 | 2.0 | 0.00 | 0.00 | 0.00 | 49 | 1011.3 |
| 20260508050505 | 60 | 163 | 1.0 | 5.0 | 0.00 | 0.00 | 0.00 | 49 | 1011.4 |
| 20260508050006 | 60 | 252 | 0.0 | 6.0 | 0.00 | 0.00 | 0.00 | 50 | 1011.3 |
| 20260508045504 | 60 | 252 | 0.0 | 6.0 | 0.00 | 0.00 | 0.00 | 49 | 1011.4 |
| 20260508045003 | 60 | 297 | 0.0 | 3.0 | 0.00 | 0.00 | 0.00 | 49 | 1011.4 |
| 20260508044510 | 61 | 248 | 0.0 | 3.0 | 0.00 | 0.00 | 0.00 | 48 | 1011.4 |
| 20260508044004 | 61 | 269 | 0.0 | 7.0 | 0.00 | 0.00 | 0.00 | 48 | 1011.4 |
| 20260508043503 | 61 | 251 | 1.0 | 7.0 | 0.00 | 0.00 | 0.00 | 47 | 1011.4 |
| 20260508043018 | 61 | 295 | 0.0 | 3.0 | 0.00 | 0.00 | 0.00 | 47 | 1011.5 |
| 20260508042507 | 61 | 283 | 0.0 | 6.0 | 0.00 | 0.00 | 0.00 | 47 | 1011.6 |
| 20260508042007 | 61 | 249 | 1.0 | 6.0 | 0.00 | 0.00 | 0.00 | 47 | 1011.6 |
| 20260508041538 | 61 | 248 | 0.0 | 3.0 | 0.00 | 0.00 | 0.00 | 47 | 1011.6 |
| 20260508041008 | 61 | 261 | 0.0 | 3.0 | 0.00 | 0.00 | 0.00 | 47 | 1011.6 |
| 20260508040507 | 61 | 261 | 0.0 | 3.0 | 0.00 | 0.00 | 0.00 | 46 | 1011.6 |
| 20260508040004 | 62 | 139 | 0.0 | 4.0 | 0.00 | 0.00 | 0.00 | 45 | 1011.6 |
| 20260508035504 | 62 | 263 | 0.0 | 4.0 | 0.00 | 0.00 | 0.00 | 46 | 1011.6 |
| 20260508035003 | 62 | 69 | 0.0 | 3.0 | 0.00 | 0.00 | 0.00 | 45 | 1011.6 |
| 20260508034510 | 62 | 263 | 0.0 | 4.0 | 0.00 | 0.00 | 0.00 | 45 | 1011.6 |
| 20260508034005 | 62 | 148 | 0.0 | 4.0 | 0.00 | 0.00 | 0.00 | 45 | 1011.6 |
| 20260508033505 | 62 | 259 | 1.0 | 4.0 | 0.00 | 0.00 | 0.00 | 45 | 1011.6 |
| 20260508033013 | 62 | 250 | 0.0 | 3.0 | 0.00 | 0.00 | 0.00 | 45 | 1011.6 |
| 20260508032504 | 63 | 261 | 0.0 | 4.0 | 0.00 | 0.00 | 0.00 | 44 | 1011.6 |
| 20260508032005 | 63 | 283 | 0.0 | 4.0 | 0.00 | 0.00 | 0.00 | 44 | 1011.6 |
| 20260508031518 | 63 | 171 | 0.0 | 4.0 | 0.00 | 0.00 | 0.00 | 44 | 1011.6 |
| 20260508031009 | 63 | 218 | 0.0 | 4.0 | 0.00 | 0.00 | 0.00 | 43 | 1011.6 |
| 20260508030508 | 63 | 265 | 0.0 | 4.0 | 0.00 | 0.00 | 0.00 | 43 | 1011.6 |
| 20260508030027 | 64 | 248 | 0.0 | 3.0 | 0.00 | 0.00 | 0.00 | 42 | 1011.6 |
| 20260508025507 | 64 | 184 | 0.0 | 3.0 | 0.00 | 0.00 | 0.00 | 41 | 1011.6 |
| 20260508025003 | 64 | 266 | 0.0 | 3.0 | 0.00 | 0.00 | 0.00 | 41 | 1011.5 |
| 20260508024508 | 65 | 266 | 0.0 | 4.0 | 0.00 | 0.00 | 0.00 | 40 | 1011.4 |
| 20260508024004 | 65 | 266 | 1.0 | 4.0 | 0.00 | 0.00 | 0.00 | 39 | 1011.4 |
| 20260508023503 | 65 | 247 | 0.0 | 3.0 | 0.00 | 0.00 | 0.00 | 38 | 1011.3 |
| 20260508023011 | 66 | 134 | 0.0 | 4.0 | 0.00 | 0.00 | 0.00 | 38 | 1011.3 |
| 20260508022503 | 66 | 290 | 0.0 | 5.0 | 0.00 | 0.00 | 0.00 | 37 | 1011.3 |
| 20260508022006 | 66 | 223 | 1.0 | 5.0 | 0.00 | 0.00 | 0.00 | 37 | 1011.3 |
| 20260508021513 | 66 | 262 | 0.0 | 3.0 | 0.00 | 0.00 | 0.00 | 36 | 1011.2 |
| 20260508021004 | 66 | 294 | 1.0 | 2.0 | 0.00 | 0.00 | 0.00 | 35 | 1011.2 |
| 20260508020507 | 67 | 252 | 0.0 | 2.0 | 0.00 | 0.00 | 0.00 | 36 | 1011.2 |
| 20260508020025 | 67 | 211 | 0.0 | 2.0 | 0.00 | 0.00 | 0.00 | 35 | 1011.0 |
| 20260508015507 | 67 | 261 | 0.0 | 2.0 | 0.00 | 0.00 | 0.00 | 35 | 1010.9 |
| 20260508015008 | 68 | 261 | 0.0 | 2.0 | 0.00 | 0.00 | 0.00 | 34 | 1010.8 |
| 20260508014521 | 68 | 261 | 0.0 | 2.0 | 0.00 | 0.00 | 0.00 | 34 | 1010.8 |
| 20260508014011 | 69 | 261 | 0.0 | 6.0 | 0.00 | 0.00 | 0.00 | 34 | 1010.8 |
| 20260508013506 | 69 | 261 | 0.0 | 6.0 | 0.00 | 0.00 | 0.00 | 33 | 1010.6 |
| 20260508013007 | 69 | 210 | 0.0 | 4.0 | 0.00 | 0.00 | 0.00 | 33 | 1010.6 |
| 20260508012503 | 70 | 277 | 0.0 | 3.0 | 0.00 | 0.00 | 0.00 | 32 | 1010.6 |
| 20260508012003 | 70 | 184 | 0.0 | 4.0 | 0.00 | 0.00 | 0.00 | 32 | 1010.6 |
| 20260508011514 | 70 | 254 | 1.0 | 4.0 | 0.00 | 0.00 | 0.00 | 32 | 1010.5 |
| 20260508011002 | 71 | 249 | 0.0 | 3.0 | 0.00 | 0.00 | 0.00 | 32 | 1010.5 |
| 20260508010507 | 71 | 232 | 0.0 | 6.0 | 0.00 | 0.00 | 0.00 | 32 | 1010.5 |
| 20260508010016 | 72 | 254 | 1.0 | 7.0 | 0.00 | 0.00 | 0.00 | 31 | 1010.5 |
| 20260508005506 | 72 | 262 | 1.0 | 7.0 | 0.00 | 0.00 | 0.00 | 30 | 1010.4 |
| 20260508005006 | 72 | 281 | 2.0 | 7.0 | 0.00 | 0.00 | 0.00 | 30 | 1010.4 |
| 20260508004522 | 73 | 223 | 0.0 | 7.0 | 0.00 | 0.00 | 0.00 | 31 | 1010.4 |
| 20260508004010 | 73 | 284 | 1.0 | 7.0 | 0.00 | 0.00 | 0.00 | 30 | 1010.4 |
| 20260508003511 | 73 | 261 | 1.0 | 8.0 | 0.00 | 0.00 | 0.00 | 29 | 1010.4 |
| 20260508003033 | 74 | 250 | 1.0 | 8.0 | 0.00 | 0.00 | 0.00 | 29 | 1010.4 |
| 20260508002509 | 74 | 276 | 2.0 | 8.0 | 0.00 | 0.00 | 0.00 | 29 | 1010.5 |
| 20260508002003 | 74 | 144 | 1.0 | 7.0 | 0.00 | 0.00 | 0.00 | 28 | 1010.5 |
| 20260508001509 | 74 | 253 | 2.0 | 7.0 | 0.00 | 0.00 | 0.00 | 27 | 1010.5 |
| 20260508001004 | 75 | 270 | 1.0 | 7.0 | 0.00 | 0.00 | 0.00 | 27 | 1010.5 |
| 20260508000506 | 75 | 169 | 1.0 | 8.0 | 0.00 | 0.00 | 0.00 | 28 | 1010.6 |
| 20260508000011 | 76 | 202 | 2.0 | 8.0 | 0.00 | 0.00 | 0.00 | 27 | 1010.6 |
| 20260507235507 | 76 | 252 | 3.0 | 8.0 | 0.00 | 0.00 | 0.00 | 27 | 1010.5 |
| 20260507235006 | 76 | 255 | 2.0 | 7.0 | 0.00 | 0.00 | 0.00 | 25 | 1010.6 |
| 20260507234517 | 76 | 228 | 2.0 | 7.0 | 0.00 | 0.00 | 0.00 | 26 | 1010.6 |
| 20260507234007 | 76 | 265 | 2.0 | 7.0 | 0.00 | 0.00 | 0.00 | 26 | 1010.5 |
| 20260507233507 | 76 | 259 | 1.0 | 8.0 | 0.00 | 0.00 | 0.00 | 27 | 1010.6 |
| 20260507233032 | 77 | 262 | 3.0 | 8.0 | 0.00 | 0.00 | 0.00 | 26 | 1010.6 |
| 20260507232507 | 77 | 160 | 2.0 | 8.0 | 0.00 | 0.00 | 0.00 | 26 | 1010.7 |
| 20260507232010 | 77 | 221 | 3.0 | 8.0 | 0.00 | 0.00 | 0.00 | 26 | 1010.7 |
| 20260507231530 | 77 | 279 | 3.0 | 8.0 | 0.00 | 0.00 | 0.00 | 25 | 1010.8 |
| 20260507231009 | 78 | 324 | 1.0 | 6.0 | 0.00 | 0.00 | 0.00 | 27 | 1010.8 |
| 20260507230507 | 78 | 289 | 1.0 | 6.0 | 0.00 | 0.00 | 0.00 | 27 | 1010.9 |
| 20260507230013 | 78 | 230 | 0.0 | 7.0 | 0.00 | 0.00 | 0.00 | 27 | 1010.9 |
| 20260507225506 | 78 | 267 | 1.0 | 7.0 | 0.00 | 0.00 | 0.00 | 27 | 1011.1 |
| 20260507225011 | 78 | 239 | 1.0 | 9.0 | 0.00 | 0.00 | 0.00 | 28 | 1011.1 |
| 20260507224521 | 77 | 245 | 2.0 | 9.0 | 0.00 | 0.00 | 0.00 | 26 | 1011.2 |
| 20260507224008 | 78 | 253 | 1.0 | 6.0 | 0.00 | 0.00 | 0.00 | 26 | 1011.3 |
| 20260507223504 | 77 | 272 | 1.0 | 8.0 | 0.00 | 0.00 | 0.00 | 28 | 1011.3 |
| 20260507223020 | 77 | 248 | 2.0 | 10.0 | 0.00 | 0.00 | 0.00 | 26 | 1011.3 |
| 20260507222509 | 77 | 242 | 1.0 | 10.0 | 0.00 | 0.00 | 0.00 | 27 | 1011.3 |
| 20260507222006 | 77 | 268 | 1.0 | 12.0 | 0.00 | 0.00 | 0.00 | 26 | 1011.3 |
| 20260507221529 | 77 | 202 | 2.0 | 12.0 | 0.00 | 0.00 | 0.00 | 26 | 1011.4 |
| 20260507221010 | 77 | 182 | 2.0 | 7.0 | 0.00 | 0.00 | 0.00 | 27 | 1011.5 |
| 20260507220509 | 77 | 327 | 0.0 | 8.0 | 0.00 | 0.00 | 0.00 | 29 | 1011.5 |
| 20260507220029 | 77 | 132 | 2.0 | 8.0 | 0.00 | 0.00 | 0.00 | 26 | 1011.7 |
| 20260507215510 | 77 | 250 | 1.0 | 9.0 | 0.00 | 0.00 | 0.00 | 28 | 1011.7 |
| 20260507215009 | 77 | 188 | 2.0 | 9.0 | 0.00 | 0.00 | 0.00 | 27 | 1011.7 |
| 20260507214513 | 77 | 237 | 4.0 | 9.0 | 0.00 | 0.00 | 0.00 | 27 | 1011.7 |
| 20260507214004 | 77 | 250 | 1.0 | 7.0 | 0.00 | 0.00 | 0.00 | 27 | 1011.7 |
| 20260507213509 | 77 | 246 | 1.0 | 10.0 | 0.00 | 0.00 | 0.00 | 29 | 1011.9 |
| 20260507213022 | 76 | 221 | 2.0 | 10.0 | 0.00 | 0.00 | 0.00 | 27 | 1011.9 |
| 20260507212506 | 76 | 349 | 2.0 | 9.0 | 0.00 | 0.00 | 0.00 | 27 | 1011.9 |
| 20260507212007 | 76 | 259 | 1.0 | 8.0 | 0.00 | 0.00 | 0.00 | 28 | 1012.1 |
| 20260507211524 | 75 | 248 | 1.0 | 10.0 | 0.00 | 0.00 | 0.00 | 28 | 1012.2 |
| 20260507211007 | 75 | 250 | 3.0 | 10.0 | 0.00 | 0.00 | 0.00 | 30 | 1012.3 |
| 20260507210509 | 75 | 352 | 3.0 | 9.0 | 0.00 | 0.00 | 0.00 | 27 | 1012.3 |
| 20260507210026 | 75 | 228 | 3.0 | 11.0 | 0.00 | 0.00 | 0.00 | 31 | 1012.5 |
| 20260507205513 | 75 | 206 | 2.0 | 11.0 | 0.00 | 0.00 | 0.00 | 27 | 1012.6 |
| 20260507205007 | 75 | 238 | 4.0 | 9.0 | 0.00 | 0.00 | 0.00 | 28 | 1012.7 |
| 20260507204525 | 75 | 267 | 1.0 | 13.0 | 0.00 | 0.00 | 0.00 | 30 | 1012.7 |
| 20260507204010 | 75 | 243 | 3.0 | 13.0 | 0.00 | 0.00 | 0.00 | 29 | 1012.8 |
| 20260507203511 | 75 | 24 | 2.0 | 10.0 | 0.00 | 0.00 | 0.00 | 30 | 1012.9 |
| 20260507203017 | 74 | 28 | 1.0 | 8.0 | 0.00 | 0.00 | 0.00 | 32 | 1013.1 |
| 20260507202503 | 74 | 157 | 3.0 | 10.0 | 0.00 | 0.00 | 0.00 | 28 | 1013.2 |
| 20260507202005 | 74 | 227 | 3.0 | 10.0 | 0.00 | 0.00 | 0.00 | 29 | 1013.3 |
| 20260507201522 | 74 | 211 | 2.0 | 10.0 | 0.00 | 0.00 | 0.00 | 30 | 1013.5 |
| 20260507201008 | 74 | 199 | 3.0 | 10.0 | 0.00 | 0.00 | 0.00 | 31 | 1013.6 |
| 20260507200511 | 74 | 213 | 3.0 | 11.0 | 0.00 | 0.00 | 0.00 | 31 | 1013.7 |
| 20260507200023 | 74 | 244 | 2.0 | 11.0 | 0.00 | 0.00 | 0.00 | 32 | 1013.8 |
| 20260507195509 | 74 | 22 | 1.0 | 8.0 | 0.00 | 0.00 | 0.00 | 33 | 1013.8 |
| 20260507195010 | 74 | 101 | 2.0 | 13.0 | 0.00 | 0.00 | 0.00 | 32 | 1013.8 |
| 20260507194540 | 73 | 229 | 4.0 | 13.0 | 0.00 | 0.00 | 0.00 | 32 | 1014.0 |
| 20260507194008 | 73 | 271 | 1.0 | 10.0 | 0.00 | 0.00 | 0.00 | 33 | 1014.0 |
| 20260507193511 | 72 | 282 | 2.0 | 10.0 | 0.00 | 0.00 | 0.00 | 32 | 1014.0 |
| 20260507193030 | 71 | 264 | 2.0 | 9.0 | 0.00 | 0.00 | 0.00 | 33 | 1014.1 |
| 20260507192511 | 71 | 229 | 4.0 | 9.0 | 0.00 | 0.00 | 0.00 | 33 | 1014.3 |
| 20260507192010 | 71 | 224 | 3.0 | 9.0 | 0.00 | 0.00 | 0.00 | 34 | 1014.3 |
| 20260507191529 | 71 | 232 | 4.0 | 9.0 | 0.00 | 0.00 | 0.00 | 32 | 1014.5 |
| 20260507191007 | 70 | 244 | 2.0 | 9.0 | 0.00 | 0.00 | 0.00 | 39 | 1014.4 |
| 20260507190507 | 70 | 215 | 3.0 | 9.0 | 0.00 | 0.00 | 0.00 | 33 | 1014.4 |
| 20260507190023 | 70 | 273 | 3.0 | 10.0 | 0.00 | 0.00 | 0.00 | 36 | 1014.5 |
| 20260507185506 | 70 | 273 | 4.0 | 10.0 | 0.00 | 0.00 | 0.00 | 35 | 1014.7 |
| 20260507185004 | 70 | 259 | 2.0 | 10.0 | 0.00 | 0.00 | 0.00 | 37 | 1014.7 |
| 20260507184507 | 69 | 247 | 3.0 | 10.0 | 0.00 | 0.00 | 0.00 | 36 | 1014.8 |
| 20260507184004 | 69 | 205 | 2.0 | 10.0 | 0.00 | 0.00 | 0.00 | 36 | 1014.8 |
| 20260507183503 | 69 | 268 | 4.0 | 12.0 | 0.00 | 0.00 | 0.00 | 36 | 1015.0 |
| 20260507183015 | 69 | 226 | 4.0 | 12.0 | 0.00 | 0.00 | 0.00 | 38 | 1015.1 |
| 20260507182504 | 69 | 298 | 2.0 | 11.0 | 0.00 | 0.00 | 0.00 | 37 | 1015.3 |
| 20260507182004 | 68 | 34 | 3.0 | 11.0 | 0.00 | 0.00 | 0.00 | 37 | 1015.3 |
| 20260507181513 | 68 | 295 | 2.0 | 9.0 | 0.00 | 0.00 | 0.00 | 40 | 1015.4 |
| 20260507181011 | 67 | 272 | 2.0 | 9.0 | 0.00 | 0.00 | 0.00 | 39 | 1015.5 |
| 20260507180507 | 67 | 257 | 4.0 | 10.0 | 0.00 | 0.00 | 0.00 | 38 | 1015.6 |
| 20260507180028 | 67 | 246 | 5.0 | 10.0 | 0.00 | 0.00 | 0.00 | 41 | 1015.6 |
| 20260507175509 | 66 | 233 | 4.0 | 10.0 | 0.00 | 0.00 | 0.00 | 41 | 1015.6 |
| 20260507175007 | 66 | 202 | 2.0 | 11.0 | 0.00 | 0.00 | 0.00 | 43 | 1015.9 |
| 20260507174504 | 66 | 211 | 4.0 | 11.0 | 0.00 | 0.00 | 0.00 | 42 | 1015.9 |
| 20260507174003 | 66 | 144 | 2.0 | 11.0 | 0.00 | 0.00 | 0.00 | 44 | 1016.0 |
| 20260507173503 | 65 | 232 | 2.0 | 13.0 | 0.00 | 0.00 | 0.00 | 43 | 1016.0 |
| 20260507173004 | 65 | 194 | 4.0 | 13.0 | 0.00 | 0.00 | 0.00 | 43 | 1016.2 |
| 20260507172503 | 65 | 208 | 4.0 | 11.0 | 0.00 | 0.00 | 0.00 | 42 | 1016.3 |
| 20260507172002 | 65 | 11 | 1.0 | 11.0 | 0.00 | 0.00 | 0.00 | 46 | 1016.3 |
| 20260507171513 | 65 | 285 | 3.0 | 12.0 | 0.00 | 0.00 | 0.00 | 44 | 1016.4 |
| 20260507171005 | 64 | 288 | 3.0 | 18.0 | 0.00 | 0.00 | 0.00 | 44 | 1016.5 |
| 20260507170506 | 64 | 182 | 4.0 | 18.0 | 0.00 | 0.00 | 0.00 | 45 | 1016.6 |
| 20260507170016 | 64 | 180 | 4.0 | 18.0 | 0.00 | 0.00 | 0.00 | 46 | 1016.8 |
| 20260507165509 | 63 | 166 | 2.0 | 11.0 | 0.00 | 0.00 | 0.00 | 48 | 1017.0 |
| 20260507165008 | 63 | 250 | 4.0 | 12.0 | 0.00 | 0.00 | 0.00 | 47 | 1017.0 |
| 20260507164526 | 63 | 254 | 6.0 | 14.0 | 0.00 | 0.00 | 0.00 | 46 | 1017.1 |
| 20260507164010 | 63 | 250 | 3.0 | 14.0 | 0.00 | 0.00 | 0.00 | 48 | 1017.1 |
| 20260507163509 | 63 | 250 | 6.0 | 14.0 | 0.00 | 0.00 | 0.00 | 49 | 1017.2 |
| 20260507163003 | 62 | 216 | 5.0 | 11.0 | 0.00 | 0.00 | 0.00 | 48 | 1017.1 |
| 20260507162505 | 62 | 267 | 2.0 | 13.0 | 0.00 | 0.00 | 0.00 | 49 | 1017.4 |
| 20260507162004 | 62 | 254 | 2.0 | 13.0 | 0.00 | 0.00 | 0.00 | 50 | 1017.5 |
| 20260507161507 | 61 | 222 | 4.0 | 11.0 | 0.00 | 0.00 | 0.00 | 49 | 1017.4 |
| 20260507161003 | 61 | 244 | 2.0 | 11.0 | 0.00 | 0.00 | 0.00 | 51 | 1017.4 |
| 20260507160504 | 61 | 262 | 5.0 | 11.0 | 0.00 | 0.00 | 0.00 | 51 | 1017.4 |
| 20260507160012 | 60 | 27 | 4.0 | 12.0 | 0.00 | 0.00 | 0.00 | 52 | 1017.3 |